Location: Unspecified
(41.5516°N, 88.1098°W)
Time: 15:43:23
(UTC-05:00)

Cosmos 2058 - Visible Passes

Search period start: 25 May 2018 00:00
Search period end: 04 June 2018 00:00
Orbit: 564 x 584 km, 82.5° (Epoch: 25 May)

Date Brightness Start Highest point End Pass type
(mag) Time Alt. Az. Time Alt. Az. Time Alt. Az.
25 May 5.5 02:31:23 10° ESE 02:33:44 15° E 02:36:07 10° NE visible
25 May 3.5 04:07:34 19° SW 04:10:15 42° WNW 04:14:18 10° N visible
26 May 5.2 02:34:44 14° ESE 02:36:48 19° E 02:39:49 10° NE visible
26 May 3.9 04:10:58 18° SW 04:13:29 32° WNW 04:17:17 10° NNW visible
27 May 4.8 02:38:07 19° SE 02:39:53 25° E 02:43:21 10° NNE visible
27 May 4.3 04:14:20 16° WSW 04:16:43 25° WNW 04:20:13 10° NNW visible
28 May 4.3 02:41:28 25° SE 02:42:59 33° E 02:46:46 10° NNE visible
28 May 4.6 04:17:42 13° WSW 04:19:58 19° WNW 04:23:02 10° NNW visible
29 May 3.8 02:44:49 34° SE 02:46:05 44° E 02:50:06 10° NNE visible
29 May 4.9 04:21:02 11° WSW 04:23:16 15° WNW 04:25:42 10° NW visible
30 May 3.3 02:48:08 44° SSE 02:49:12 60° E 02:53:22 10° NNE visible
30 May 5.1 04:25:10 10° W 04:26:33 11° WNW 04:27:56 10° NW visible
31 May 2.9 02:51:26 53° S 02:52:21 81° E 02:56:35 10° N visible
01 Jun 2.9 02:54:43 56° SSW 02:55:31 75° W 02:59:44 10° N visible
02 Jun 5.5 01:21:46 11° E 01:22:20 11° E 01:23:44 10° ENE visible
02 Jun 3.1 02:57:59 48° WSW 02:58:42 55° W 03:02:51 10° N visible
03 Jun 5.2 01:25:01 15° E 01:25:22 15° E 01:27:49 10° NE visible
03 Jun 3.5 03:01:14 38° WSW 03:01:54 41° WNW 03:05:54 10° N visible
